Location: Eurasberg
(48.3353°N, 11.0839°E)
Time: 15:31:49
(UTC+00:00)

Cosmos 1470 Rocket - Visible Passes

Search period start: 19 April 2026 00:00
Search period end: 29 April 2026 00:00
Orbit: 596 x 627 km, 82.5° (Epoch: 19 April)

Date Brightness Start Highest point End Pass type
(mag) Time Alt. Az. Time Alt. Az. Time Alt. Az.
20 Apr 6.1 18:52:59 10° SW 18:56:39 26° WNW 19:00:19 10° NNW visible
21 Apr 7.1 03:19:43 10° NNE 03:21:53 13° ENE 03:24:02 10° E visible
21 Apr 6.8 19:08:58 10° WSW 19:11:47 17° WNW 19:14:37 10° NNW visible
22 Apr 6.6 03:33:45 10° NNE 03:37:04 21° ENE 03:40:21 10° ESE visible
22 Apr 7.5 19:26:11 10° WNW 19:27:02 10° WNW 19:27:53 10° NW visible
25 Apr 7.1 02:42:13 10° NE 02:43:44 12° ENE 02:45:16 10° E visible
26 Apr 6.6 02:55:56 10° NNE 02:58:57 18° ENE 03:01:58 10° ESE visible
27 Apr 5.8 03:10:18 10° N 03:14:04 29° ENE 03:17:49 10° SE visible
28 Apr 4.8 03:24:57 10° N 03:29:07 47° ENE 03:33:16 10° SSE visible
